Date String (YYYY-MM-DD hh:mm:ss) UTC,Instrument flags,absolute air pressure of the measurement (hPa),sample flow rate (lpm),inlet stack bypass flow (lpm),air temperature of the measurement (°C),ambient temperature measured by the external sensor (°C),aerosol sample conditioner tube jacket temperature (°C),OPC LED temperature (°C),internal box temperature (°C),relative humidity of the measurement (%),span deviation,mass concentration of particles derived from Lorenz-Mie calculation of OPC scattering (μg/m³),mass concentration of particles derived from Lorenz-Mie calculation of OPC scattering (μg/m³),mass concentration of particles derived from Lorenz-Mie calculation of OPC scattering (μg/m³)
DateTimeUTC,F1_M11,P_M11,Q1_M11,Q2_M11,T1_M11,T2_M11,T3_M11,T4_M11,T5_M11,U1_M11,ZSPAN_M11,X0_M11,X2_M11,X1_M11
2024-06-13 15:00:00,SystemResetWarning,0831.2,5.00,000.00,029.5,028.8,000.0,037.7,031.3,024.6,0000.0,0019.97,0006.22,0005.17
2024-06-13 15:01:00,SystemResetWarning,0831.1,5.00,000.00,029.5,029.0,000.0,037.7,031.3,024.8,0000.0,0019.52,0006.20,0005.19
2024-06-13 15:02:00,SystemResetWarning,0831.2,5.00,000.00,029.6,029.1,000.0,037.8,031.4,024.7,0000.0,0020.14,0006.21,0005.19
2024-06-13 15:03:00,SystemResetWarning,0831.1,5.00,000.00,029.7,029.0,000.0,037.8,031.4,025.5,0000.0,0020.40,0006.20,0005.19
2024-06-13 15:04:00,SystemResetWarning,0831.1,4.98,000.00,029.5,027.4,000.0,037.9,030.6,025.8,0000.0,0020.37,0006.20,0005.19
2024-06-13 15:05:00,SystemResetWarning,0830.9,5.03,000.00,029.1,026.0,000.0,037.9,029.9,026.2,0000.0,0019.61,0006.22,0005.20
2024-06-13 15:06:00,SystemResetWarning,0831.0,4.99,000.00,029.0,026.4,000.0,037.8,030.0,025.6,0000.0,0018.95,0006.18,0005.19
2024-06-13 15:07:00,SystemResetWarning,0831.1,4.99,000.00,029.0,026.8,000.0,037.7,030.2,025.1,0000.0,0018.91,0006.21,0005.18
2024-06-13 15:08:00,SystemResetWarning,0831.2,5.01,000.00,029.0,027.2,000.0,037.6,030.5,025.3,0000.0,0019.19,0006.23,0005.18
2024-06-13 15:09:00,SystemResetWarning,0831.1,5.01,000.00,029.1,027.6,000.0,037.6,030.7,025.8,0000.0,0018.07,0006.18,0005.17
2024-06-13 15:10:00,SystemResetWarning,0831.1,5.00,000.00,029.1,027.9,000.0,037.5,030.8,025.6,0000.0,0019.44,0006.17,0005.17
2024-06-13 15:11:00,SystemResetWarning,0831.1,4.99,000.00,029.2,028.2,000.0,037.5,030.9,025.3,0000.0,0021.36,0006.23,0005.18
2024-06-13 15:12:00,SystemResetWarning,0831.2,5.00,000.00,029.3,028.5,000.0,037.5,031.0,025.8,0000.0,0022.76,0006.28,0005.18
2024-06-13 15:13:00,SystemResetWarning,0831.2,5.00,000.00,029.4,028.7,000.0,037.6,031.1,025.7,0000.0,0023.15,0006.33,0005.19
2024-06-13 15:14:00,SystemResetWarning,0831.1,5.00,000.00,029.4,028.8,000.0,037.6,031.3,025.3,0000.0,0022.55,0006.37,0005.19
2024-06-13 15:15:00,SystemResetWarning,0831.2,5.00,000.00,029.5,029.0,000.0,037.6,031.3,024.7,0000.0,0022.19,0006.37,0005.19
2024-06-13 15:16:00,SystemResetWarning,0831.2,5.00,000.00,029.6,029.1,000.0,037.6,031.4,023.2,0000.0,0021.58,0006.35,0005.18
2024-06-13 15:17:00,SystemResetWarning,0831.2,4.98,000.00,029.5,028.0,000.0,037.7,030.8,023.0,0000.0,0021.81,0006.38,0005.18
2024-06-13 15:18:00,SystemResetWarning,0831.1,5.01,000.00,029.1,026.1,000.0,037.8,029.9,023.9,0000.0,0021.90,0006.36,0005.18
2024-06-13 15:19:00,SystemResetWarning,0831.2,5.02,000.00,028.9,026.2,000.0,037.7,029.9,024.5,0000.0,0022.12,0006.39,0005.19
2024-06-13 15:20:00,SystemResetWarning,0831.1,5.00,000.00,028.9,026.7,000.0,037.6,030.1,024.7,0000.0,0022.14,0006.40,0005.21
2024-06-13 15:21:00,SystemResetWarning,0831.1,5.00,000.00,028.9,027.1,000.0,037.5,030.3,025.0,0000.0,0020.56,0006.46,0005.21
2024-06-13 15:22:00,SystemResetWarning,0831.2,5.00,000.00,029.0,027.5,000.0,037.5,030.5,025.6,0000.0,0018.41,0006.42,0005.19
2024-06-13 15:23:00,SystemResetWarning,0831.1,5.00,000.00,029.0,027.8,000.0,037.5,030.7,025.3,0000.0,0016.78,0006.38,0005.16
2024-06-13 15:24:00,SystemResetWarning,0831.2,5.00,000.00,029.1,028.1,000.0,037.4,030.8,025.0,0000.0,0015.99,0006.29,0005.13
2024-06-13 15:25:00,SystemResetWarning,0831.2,5.00,000.00,029.2,028.3,000.0,037.4,030.9,024.9,0000.0,0015.85,0006.24,0005.10
2024-06-13 15:26:00,SystemResetWarning,0831.2,5.00,000.00,029.3,028.6,000.0,037.5,031.0,024.4,0000.0,0016.36,0006.26,0005.08
2024-06-13 15:27:00,SystemResetWarning,0831.2,5.00,000.00,029.3,028.7,000.0,037.5,031.1,024.0,0000.0,0016.79,0006.20,0005.05
2024-06-13 15:28:00,SystemResetWarning,0831.2,5.00,000.00,029.4,028.9,000.0,037.5,031.2,024.8,0000.0,0016.90,0006.20,0005.03
2024-06-13 15:29:00,SystemResetWarning,0831.2,5.00,000.00,029.5,029.0,000.0,037.6,031.2,024.4,0000.0,0017.16,0006.21,0005.02
2024-06-13 15:30:00,SystemResetWarning,0831.1,4.99,000.00,029.4,027.5,000.0,037.7,030.5,025.3,0000.0,0017.81,0006.18,0004.99
2024-06-13 15:31:00,SystemResetWarning,0831.1,5.02,000.00,029.0,025.9,000.0,037.7,029.8,025.2,0000.0,0018.74,0006.16,0004.95
2024-06-13 15:32:00,SystemResetWarning,0831.1,5.01,000.00,028.8,026.2,000.0,037.6,029.8,025.5,0000.0,0019.85,0006.12,0004.94
2024-06-13 15:33:00,SystemResetWarning,0831.2,4.99,000.00,028.8,026.7,000.0,037.5,030.1,025.1,0000.0,0021.86,0006.09,0004.94
2024-06-13 15:34:00,SystemResetWarning,0831.1,5.00,000.00,028.9,027.1,000.0,037.4,030.3,024.7,0000.0,0022.95,0006.08,0004.95
2024-06-13 15:35:00,SystemResetWarning,0831.2,5.00,000.00,028.9,027.5,000.0,037.4,030.5,024.2,0000.0,0024.37,0006.06,0004.95
2024-06-13 15:36:00,SystemResetWarning,0831.2,5.00,000.00,029.0,027.9,000.0,037.4,030.7,024.7,0000.0,0024.50,0006.04,0004.95
2024-06-13 15:37:00,SystemResetWarning,0831.2,5.00,000.00,029.1,028.1,000.0,037.4,030.8,024.6,0000.0,0025.06,0005.99,0004.95
2024-06-13 15:38:00,SystemResetWarning,0831.2,5.00,000.00,029.1,028.4,000.0,037.4,030.9,023.6,0000.0,0025.21,0006.00,0004.94
2024-06-13 15:39:00,SystemResetWarning,0831.3,5.00,000.00,029.2,028.6,000.0,037.4,031.0,023.1,0000.0,0025.60,0006.02,0004.94
2024-06-13 15:40:00,SystemResetWarning,0831.3,5.00,000.00,029.3,028.7,000.0,037.4,031.1,023.1,0000.0,0025.74,0006.01,0004.94
2024-06-13 15:41:00,SystemResetWarning,0831.3,5.00,000.00,029.4,028.9,000.0,037.5,031.2,023.1,0000.0,0025.27,0005.97,0004.94
2024-06-13 15:42:00,SystemResetWarning,0831.3,4.99,000.00,029.4,028.8,000.0,037.5,031.1,022.2,0000.0,0024.22,0005.98,0004.94
2024-06-13 15:43:00,SystemResetWarning,0831.3,4.99,000.00,029.3,027.1,000.0,037.6,030.3,022.7,0000.0,0023.32,0006.00,0004.94
2024-06-13 15:44:00,SystemResetWarning,0831.1,5.01,000.00,028.9,025.9,000.0,037.6,029.8,023.0,0000.0,0021.57,0005.97,0004.92
2024-06-13 15:45:00,SystemResetWarning,0831.2,5.01,000.00,028.8,026.4,000.0,037.6,029.9,023.9,0000.0,0020.39,0005.99,0004.92
2024-06-13 15:46:00,SystemResetWarning,0831.2,4.99,000.00,028.8,026.8,000.0,037.5,030.2,023.2,0000.0,0019.09,0006.01,0004.92
2024-06-13 15:47:00,SystemResetWarning,0831.2,5.00,000.00,028.9,027.3,000.0,037.4,030.4,023.6,0000.0,0018.73,0006.03,0004.92
2024-06-13 15:48:00,SystemResetWarning,0831.2,5.00,000.00,028.9,027.6,000.0,037.4,030.6,022.9,0000.0,0018.56,0006.03,0004.90
2024-06-13 15:49:00,SystemResetWarning,0831.2,5.00,000.00,029.0,028.0,000.0,037.3,030.8,022.5,0000.0,0018.21,0006.00,0004.91
2024-06-13 15:50:00,SystemResetWarning,0831.2,4.99,000.00,029.1,028.2,000.0,037.3,030.9,023.0,0000.0,0017.58,0005.96,0004.91
2024-06-13 15:51:00,SystemResetWarning,0831.2,5.00,000.00,029.2,028.5,000.0,037.4,031.0,022.9,0000.0,0017.57,0005.93,0004.89
2024-06-13 15:52:00,SystemResetWarning,0831.2,5.00,000.00,029.2,028.7,000.0,037.4,031.1,023.1,0000.0,0017.37,0005.89,0004.87
2024-06-13 15:53:00,SystemResetWarning,0831.3,4.99,000.00,029.3,028.2,000.0,037.5,030.8,023.6,0000.0,0017.22,0005.89,0004.88
2024-06-13 15:54:00,SystemResetWarning,0831.2,4.99,000.00,029.0,026.3,000.0,037.5,029.9,023.9,0000.0,0016.83,0005.92,0004.90
2024-06-13 15:55:00,SystemResetWarning,0831.2,5.02,000.00,028.7,025.9,000.0,037.5,029.7,024.5,0000.0,0016.68,0005.97,0004.93
2024-06-13 15:56:00,SystemResetWarning,0831.2,4.98,000.00,028.7,026.4,000.0,037.4,029.9,024.8,0000.0,0015.98,0005.99,0004.96
2024-06-13 15:57:00,SystemResetWarning,0831.3,5.00,000.00,028.7,026.8,000.0,037.3,030.1,024.7,0000.0,0016.45,0006.03,0004.97
2024-06-13 15:58:00,SystemResetWarning,0831.3,5.00,000.00,028.8,027.2,000.0,037.2,030.3,024.9,0000.0,0017.76,0006.06,0005.01
2024-06-13 15:59:00,SystemResetWarning,0831.3,5.00,000.00,028.8,027.6,000.0,037.2,030.5,025.6,0000.0,0017.73,0006.10,0005.04
